| time (UTC) | temp F | wind direction | speed MPH | gust MPH | rain 1hr in | rain 24hr in | rain mn in | humidity % | barometer mb |
| 20260903011520 | 71 | 90 | 4.0 | 7.0 | 0.00 | 1.79 | 0.52 | 100 | 1015.5 |
| 20260903010520 | 71 | 90 | 5.0 | 8.0 | 0.00 | 1.79 | 0.52 | 100 | 1015.7 |
| 20260903005520 | 71 | 90 | 3.0 | 7.0 | 0.00 | 1.79 | 0.52 | 100 | 1015.7 |
| 20260903004520 | 71 | 90 | 3.0 | 7.0 | 0.00 | 1.79 | 0.52 | 100 | 1015.8 |
| 20260903003520 | 71 | 90 | 2.0 | 5.0 | 0.00 | 1.79 | 0.52 | 100 | 1015.8 |
| 20260903002520 | 71 | 90 | 1.0 | 3.0 | 0.00 | 1.79 | 0.52 | 100 | 1015.4 |
| 20260903001520 | 72 | 90 | 3.0 | 8.0 | 0.00 | 1.79 | 0.52 | 100 | 1015.5 |
| 20260903000519 | 72 | 90 | 2.0 | 6.0 | 0.00 | 1.79 | 0.52 | 100 | 1015.8 |
| 20260902235731 | 72 | 90 | 2.0 | 7.0 | 0.00 | 1.79 | 0.52 | 100 | 1015.8 |
| 20260902234520 | 73 | 90 | 4.0 | 8.0 | 0.00 | 1.79 | 0.52 | 100 | 1015.7 |
| 20260902233521 | 73 | 90 | 4.0 | 8.0 | 0.00 | 1.79 | 0.52 | 100 | 1015.7 |
| 20260902232520 | 73 | 135 | 4.0 | 8.0 | 0.00 | 1.79 | 0.52 | 100 | 1015.5 |
| 20260902231730 | 74 | 135 | 4.0 | 7.0 | 0.00 | 1.79 | 0.52 | 100 | 1015.5 |
| 20260902230520 | 74 | 135 | 3.0 | 4.0 | 0.00 | 1.79 | 0.52 | 100 | 1015.6 |
| 20260902225520 | 75 | 135 | 2.0 | 4.0 | 0.00 | 1.79 | 0.52 | 100 | 1015.6 |
| 20260902224520 | 75 | 135 | 2.0 | 3.0 | 0.00 | 1.79 | 0.52 | 100 | 1015.6 |
| 20260902223520 | 75 | 135 | 1.0 | 4.0 | 0.00 | 1.79 | 0.52 | 100 | 1015.7 |
| 20260902222520 | 76 | 135 | 2.0 | 4.0 | 0.00 | 1.79 | 0.52 | 100 | 1015.8 |
| 20260902221520 | 76 | 135 | 2.0 | 5.0 | 0.00 | 1.79 | 0.52 | 100 | 1015.6 |
| 20260902220520 | 76 | 158 | 2.0 | 4.0 | 0.00 | 1.79 | 0.52 | 100 | 1015.7 |
| 20260902215520 | 76 | 158 | 2.0 | 4.0 | 0.00 | 1.79 | 0.52 | 100 | 1015.7 |
| 20260902214520 | 76 | 158 | 2.0 | 6.0 | 0.00 | 1.79 | 0.52 | 100 | 1015.8 |
| 20260902213734 | 76 | 158 | 3.0 | 5.0 | 0.00 | 1.79 | 0.52 | 100 | 1015.9 |
| 20260902212944 | 76 | 158 | 2.0 | 6.0 | 0.00 | 1.79 | 0.52 | 100 | 1016.0 |
| 20260902211731 | 75 | 158 | 1.0 | 4.0 | 0.00 | 1.79 | 0.52 | 100 | 1016.1 |
| 20260902210521 | 75 | 158 | 2.0 | 4.0 | 0.00 | 1.79 | 0.52 | 100 | 1016.1 |
| 20260902205521 | 75 | 158 | 4.0 | 8.0 | 0.00 | 1.79 | 0.52 | 100 | 1016.1 |
| 20260902204734 | 75 | 158 | 2.0 | 5.0 | 0.00 | 1.79 | 0.52 | 100 | 1016.2 |
| 20260902203520 | 75 | 293 | 3.0 | 7.0 | 0.00 | 1.79 | 0.52 | 100 | 1016.2 |
| 20260902202520 | 75 | 293 | 3.0 | 5.0 | 0.00 | 1.79 | 0.52 | 100 | 1016.2 |
| 20260902201520 | 74 | 293 | 2.0 | 5.0 | 0.00 | 1.79 | 0.52 | 100 | 1016.0 |
| 20260902200733 | 73 | 293 | 3.0 | 6.0 | 0.00 | 1.79 | 0.52 | 100 | 1015.7 |
| 20260902195520 | 73 | 293 | 1.0 | 3.0 | 0.00 | 1.79 | 0.52 | 100 | 1016.0 |
| 20260902194943 | 73 | 293 | 4.0 | 8.0 | 0.00 | 1.79 | 0.52 | 100 | 1016.2 |
| 20260902193730 | 73 | 293 | 3.0 | 7.0 | 0.00 | 1.79 | 0.52 | 100 | 1016.5 |
| 20260902192518 | 73 | 293 | 3.0 | 5.0 | 0.00 | 1.79 | 0.52 | 100 | 1016.8 |
| 20260902191520 | 74 | 293 | 2.0 | 5.0 | 0.00 | 1.79 | 0.52 | 100 | 1016.8 |
| 20260902190733 | 73 | 293 | 1.0 | 5.0 | 0.00 | 1.79 | 0.52 | 100 | 1016.7 |
| 20260902185520 | 72 | 293 | 2.0 | 5.0 | 0.00 | 1.79 | 0.52 | 100 | 1016.5 |
| 20260902184520 | 71 | 293 | 1.0 | 5.0 | 0.00 | 1.79 | 0.52 | 100 | 1016.3 |
| 20260902183520 | 70 | 0.0 | 2.0 | 0.01 | 1.79 | 0.52 | 100 | 1016.3 | |
| 20260902182520 | 70 | 293 | 2.0 | 4.0 | 0.01 | 1.79 | 0.52 | 100 | 1015.8 |
| 20260902181520 | 69 | 293 | 2.0 | 5.0 | 0.01 | 1.79 | 0.52 | 100 | 1016.2 |
| 20260902180520 | 69 | 293 | 2.0 | 4.0 | 0.02 | 1.79 | 0.52 | 100 | 1016.6 |
| 20260902175730 | 69 | 293 | 1.0 | 3.0 | 0.02 | 1.79 | 0.52 | 100 | 1016.7 |
| 20260902174520 | 69 | 0.0 | 2.0 | 0.03 | 1.79 | 0.52 | 100 | 1017.2 | |
| 20260902173519 | 68 | 0.0 | 2.0 | 0.04 | 1.78 | 0.51 | 100 | 1017.3 | |
| 20260902172733 | 68 | 0.0 | 2.0 | 0.06 | 1.78 | 0.51 | 100 | 1017.2 | |
| 20260902171520 | 68 | 0.0 | 1.0 | 0.08 | 1.78 | 0.51 | 100 | 1017.3 | |
| 20260902170730 | 69 | 0.0 | 2.0 | 0.08 | 1.77 | 0.50 | 100 | 1017.4 | |
| 20260902165520 | 69 | 0.0 | 1.0 | 0.10 | 1.77 | 0.50 | 100 | 1017.9 | |
| 20260902164520 | 69 | 0.0 | 2.0 | 0.12 | 1.76 | 0.49 | 100 | 1017.8 | |
| 20260902163733 | 69 | 293 | 1.0 | 2.0 | 0.11 | 1.74 | 0.47 | 100 | 1018.0 |
| 20260902162518 | 70 | 0.0 | 1.0 | 0.27 | 1.72 | 0.45 | 100 | 1018.5 | |
| 20260902161520 | 70 | 0.0 | 0.0 | 0.41 | 1.70 | 0.43 | 100 | 1018.8 | |
| 20260902160519 | 70 | 0.0 | 2.0 | 0.41 | 1.69 | 0.42 | 100 | 1018.8 | |
| 20260902155518 | 70 | 293 | 1.0 | 3.0 | 0.39 | 1.67 | 0.40 | 100 | 1018.9 |
| 20260902154518 | 69 | 293 | 3.0 | 8.0 | 0.36 | 1.64 | 0.37 | 100 | 1018.9 |
| 20260902153520 | 70 | 135 | 4.0 | 10.0 | 0.35 | 1.63 | 0.36 | 100 | 1019.1 |
| 20260902152942 | 70 | 315 | 7.0 | 14.0 | 0.17 | 1.45 | 0.18 | 100 | 1020.2 |
| 20260902151518 | 71 | 0.0 | 5.0 | 0.01 | 1.29 | 0.02 | 100 | 1018.0 | |
| 20260902150520 | 71 | 90 | 2.0 | 7.0 | 0.00 | 1.28 | 0.01 | 100 | 1017.7 |
| 20260902145519 | 71 | 90 | 2.0 | 7.0 | 0.00 | 1.28 | 0.01 | 100 | 1017.2 |
| 20260902144519 | 71 | 90 | 5.0 | 8.0 | 0.00 | 1.28 | 0.01 | 100 | 1017.0 |
| 20260902143520 | 71 | 135 | 3.0 | 10.0 | 0.00 | 1.28 | 0.01 | 100 | 1017.1 |
| 20260902142519 | 71 | 90 | 4.0 | 7.0 | 0.00 | 1.28 | 0.01 | 100 | 1017.3 |
| 20260902141519 | 71 | 90 | 3.0 | 7.0 | 0.00 | 1.28 | 0.01 | 100 | 1017.4 |
| 20260902140731 | 71 | 90 | 4.0 | 8.0 | 0.00 | 1.33 | 0.01 | 100 | 1017.4 |
| 20260902135520 | 70 | 90 | 4.0 | 8.0 | 0.00 | 1.33 | 0.01 | 100 | 1017.4 |
| 20260902134519 | 70 | 90 | 3.0 | 7.0 | 0.00 | 1.33 | 0.01 | 100 | 1017.4 |
| 20260902133519 | 70 | 90 | 4.0 | 8.0 | 0.00 | 1.33 | 0.01 | 100 | 1017.2 |
| 20260902132518 | 70 | 90 | 4.0 | 8.0 | 0.00 | 1.33 | 0.01 | 100 | 1017.3 |
| 20260902131519 | 70 | 90 | 1.0 | 5.0 | 0.00 | 1.33 | 0.01 | 100 | 1017.5 |
| 20260902130519 | 70 | 90 | 2.0 | 5.0 | 0.00 | 1.33 | 0.01 | 100 | 1017.5 |
| 20260902125519 | 70 | 90 | 2.0 | 5.0 | 0.00 | 1.33 | 0.01 | 100 | 1017.4 |
| 20260902124520 | 70 | 90 | 3.0 | 6.0 | 0.00 | 1.33 | 0.01 | 100 | 1017.0 |
| 20260902123519 | 70 | 90 | 3.0 | 7.0 | 0.00 | 1.33 | 0.01 | 100 | 1016.9 |
| 20260902122518 | 69 | 90 | 1.0 | 3.0 | 0.00 | 1.33 | 0.01 | 100 | 1016.8 |
| 20260902121518 | 69 | 90 | 3.0 | 6.0 | 0.00 | 1.33 | 0.01 | 100 | 1016.5 |
| 20260902120519 | 69 | 90 | 2.0 | 7.0 | 0.00 | 1.33 | 0.01 | 100 | 1016.6 |
| 20260902115942 | 69 | 90 | 1.0 | 3.0 | 0.00 | 1.33 | 0.01 | 100 | 1016.7 |
| 20260902114730 | 69 | 90 | 2.0 | 6.0 | 0.00 | 1.33 | 0.01 | 100 | 1016.6 |
| 20260902113519 | 69 | 90 | 4.0 | 7.0 | 0.00 | 1.33 | 0.01 | 100 | 1016.6 |
| 20260902112732 | 68 | 90 | 3.0 | 7.0 | 0.00 | 1.33 | 0.01 | 100 | 1016.6 |
| 20260902111519 | 68 | 90 | 2.0 | 5.0 | 0.00 | 1.33 | 0.01 | 100 | 1016.5 |
| 20260902110519 | 68 | 90 | 2.0 | 5.0 | 0.00 | 1.33 | 0.01 | 100 | 1016.5 |
| 20260902105519 | 68 | 90 | 1.0 | 3.0 | 0.00 | 1.34 | 0.01 | 100 | 1016.6 |
| 20260902104519 | 68 | 90 | 1.0 | 5.0 | 0.00 | 1.34 | 0.01 | 100 | 1016.7 |
| 20260902103519 | 68 | 0.0 | 2.0 | 0.00 | 1.34 | 0.01 | 100 | 1016.8 | |
| 20260902102519 | 68 | 90 | 1.0 | 3.0 | 0.00 | 1.34 | 0.01 | 100 | 1016.7 |
| 20260902101519 | 68 | 90 | 2.0 | 8.0 | 0.00 | 1.34 | 0.01 | 100 | 1016.8 |
| 20260902100519 | 67 | 90 | 3.0 | 7.0 | 0.00 | 1.34 | 0.01 | 100 | 1016.7 |
| 20260902095519 | 67 | 90 | 2.0 | 6.0 | 0.00 | 1.34 | 0.01 | 100 | 1016.7 |
| 20260902094519 | 67 | 90 | 1.0 | 3.0 | 0.00 | 1.34 | 0.01 | 100 | 1016.8 |
| 20260902093519 | 67 | 0.0 | 0.0 | 0.00 | 1.34 | 0.01 | 100 | 1016.7 | |
| 20260902092519 | 67 | 0.0 | 0.0 | 0.00 | 1.34 | 0.01 | 100 | 1016.8 | |
| 20260902091519 | 67 | 0.0 | 0.0 | 0.00 | 1.34 | 0.01 | 100 | 1016.4 | |
| 20260902090730 | 67 | 0.0 | 0.0 | 0.00 | 1.34 | 0.01 | 100 | 1016.4 | |
| 20260902085519 | 67 | 0.0 | 0.0 | 0.00 | 1.34 | 0.01 | 100 | 1016.4 | |
| 20260902084518 | 67 | 0.0 | 0.0 | 0.00 | 1.34 | 0.01 | 100 | 1016.4 | |
| 20260902083519 | 67 | 0.0 | 0.0 | 0.00 | 1.34 | 0.01 | 100 | 1016.4 | |
| 20260902082728 | 67 | 0.0 | 0.0 | 0.00 | 1.34 | 0.01 | 100 | 1016.1 | |
| 20260902081519 | 67 | 0.0 | 0.0 | 0.00 | 1.34 | 0.01 | 100 | 1016.1 | |
| 20260902080837 | 67 | 0.0 | 0.0 | 0.00 | 1.34 | 0.01 | 100 | 1016.0 | |
| 20260902074519 | 67 | 0.0 | 0.0 | 0.00 | 1.34 | 0.01 | 100 | 1016.0 | |
| 20260902073519 | 67 | 0.0 | 0.0 | 0.00 | 1.34 | 0.01 | 100 | 1015.9 | |
| 20260902072519 | 67 | 0.0 | 2.0 | 0.00 | 1.34 | 0.01 | 100 | 1015.9 | |
| 20260902071519 | 68 | 0.0 | 0.0 | 0.01 | 1.34 | 0.01 | 100 | 1016.0 | |
| 20260902070519 | 68 | 0.0 | 0.0 | 0.01 | 1.34 | 0.01 | 100 | 1016.0 | |
| 20260902065732 | 68 | 0.0 | 0.0 | 0.01 | 1.34 | 0.01 | 100 | 1016.1 | |
| 20260902064519 | 68 | 0.0 | 0.0 | 0.01 | 1.34 | 0.01 | 100 | 1016.1 | |
| 20260902063519 | 68 | 0.0 | 0.0 | 0.01 | 1.34 | 0.01 | 100 | 1016.1 | |
| 20260902062943 | 68 | 0.0 | 0.0 | 0.01 | 1.34 | 0.01 | 100 | 1016.1 | |
| 20260902061519 | 68 | 0.0 | 0.0 | 0.00 | 1.33 | 0.00 | 100 | 1016.1 | |
| 20260902060519 | 68 | 0.0 | 0.0 | 0.00 | 1.33 | 0.00 | 100 | 1016.0 | |
| 20260902055733 | 68 | 0.0 | 0.0 | 0.00 | 1.33 | 0.00 | 100 | 1016.1 | |
| 20260902054519 | 68 | 0.0 | 0.0 | 0.00 | 1.33 | 0.00 | 100 | 1016.1 | |
| 20260902053519 | 69 | 0.0 | 0.0 | 0.00 | 1.33 | 0.00 | 100 | 1016.0 | |
| 20260902052519 | 69 | 0.0 | 0.0 | 0.00 | 1.33 | 0.00 | 100 | 1016.1 | |
| 20260902051519 | 69 | 0.0 | 0.0 | 0.00 | 1.33 | 0.00 | 100 | 1016.1 | |
| 20260902050519 | 69 | 0.0 | 0.0 | 0.00 | 1.33 | 0.00 | 100 | 1016.1 | |
| 20260902045519 | 69 | 0.0 | 1.0 | 0.00 | 1.33 | 0.00 | 100 | 1016.0 | |
| 20260902044519 | 69 | 0.0 | 2.0 | 0.00 | 1.33 | 0.00 | 100 | 1015.7 | |
| 20260902043519 | 69 | 0.0 | 1.0 | 0.00 | 1.33 | 0.00 | 100 | 1015.5 | |
| 20260902042519 | 69 | 90 | 1.0 | 2.0 | 0.00 | 1.33 | 0.00 | 100 | 1015.5 |
| 20260902041519 | 69 | 90 | 1.0 | 3.0 | 0.01 | 1.33 | 0.00 | 100 | 1015.4 |
| 20260902040519 | 69 | 90 | 1.0 | 3.0 | 0.07 | 1.33 | 0.00 | 100 | 1015.4 |
| 20260902035520 | 69 | 0.0 | 1.0 | 0.33 | 1.33 | 1.33 | 100 | 1015.6 | |
| 20260902034518 | 69 | 0.0 | 2.0 | 0.63 | 1.33 | 1.33 | 100 | 1015.3 | |
| 20260902033520 | 69 | 0.0 | 2.0 | 1.15 | 1.33 | 1.33 | 100 | 1015.4 | |
| 20260902032520 | 69 | 0.0 | 2.0 | 1.23 | 1.33 | 1.33 | 100 | 1015.4 | |
| 20260902031518 | 69 | 90 | 1.0 | 5.0 | 1.22 | 1.32 | 1.32 | 100 | 1015.6 |
| 20260902030520 | 69 | 90 | 2.0 | 8.0 | 1.18 | 1.26 | 1.26 | 100 | 1016.5 |
| 20260902025521 | 70 | 68 | 4.0 | 11.0 | 0.92 | 1.00 | 1.00 | 100 | 1016.5 |
| 20260902024518 | 70 | 90 | 3.0 | 10.0 | 0.63 | 0.70 | 0.70 | 100 | 1016.5 |
| 20260902023519 | 71 | 90 | 1.0 | 5.0 | 0.12 | 0.18 | 0.18 | 100 | 1015.6 |
| 20260902022521 | 72 | 90 | 1.0 | 3.0 | 0.04 | 0.10 | 0.10 | 100 | 1014.7 |
| 20260902021733 | 73 | 0.0 | 1.0 | 0.04 | 0.10 | 0.10 | 100 | 1014.8 | |
| 20260902020542 | 74 | 90 | 2.0 | 6.0 | 0.02 | 0.08 | 0.08 | 100 | 1014.6 |
| 20260902015521 | 76 | 68 | 1.0 | 7.0 | 0.02 | 0.08 | 0.08 | 100 | 1014.6 |
| 20260902014520 | 77 | 68 | 4.0 | 13.0 | 0.01 | 0.07 | 0.07 | 100 | 1014.6 |
| 20260902013519 | 78 | 68 | 4.0 | 9.0 | 0.00 | 0.06 | 0.06 | 100 | 1014.4 |
| 20260902012518 | 80 | 68 | 4.0 | 14.0 | 0.00 | 0.06 | 0.06 | 21 | 1014.0 |